WA9NNN-10 Weather Reports


Display with metric or nautical units.
time (UTC)temp
F
wind
direction
speed
MPH
gust
MPH
rain 1hr
in
rain 24hr
in
rain mn
in
humidity
%
barometer
mb
20260508004139 56 208 2.0 2.0 0.00 0.02 0.02 64 1009.3
20260508003637 56 213 2.0 2.0 0.00 0.02 0.02 64 1009.2
20260508003138 57 201 2.0 2.0 0.00 0.02 0.02 64 1009.2
20260508002637 57 220 2.0 3.0 0.00 0.02 0.02 64 1009.2
20260508002137 57 0 0.0 3.0 0.00 0.02 0.02 64 1009.1
20260508001637 57 212 3.0 3.0 0.00 0.02 0.02 64 1009.1
20260508001137 57 158 4.0 3.0 0.00 0.02 0.02 65 1009.1
20260508000637 57 233 1.0 3.0 0.00 0.02 0.02 65 1009.0
20260508000138 57 228 1.0 3.0 0.00 0.02 0.02 67 1009.0
20260507235636 57 214 3.0 3.0 0.00 0.02 0.02 67 1009.0
20260507235139 56 219 1.0 3.0 0.00 0.02 0.02 67 1009.0
20260507234637 56 210 2.0 3.0 0.00 0.02 0.02 68 1009.1
20260507234137 55 195 2.0 4.0 0.00 0.02 0.02 68 1009.1
20260507233637 55 211 5.0 3.0 0.00 0.02 0.02 69 1009.2
20260507233137 55 212 2.0 3.0 0.00 0.02 0.02 70 1009.1
20260507232637 55 189 4.0 3.0 0.00 0.02 0.02 71 1009.2
20260507232137 55 211 5.0 3.0 0.00 0.02 0.02 71 1009.2
20260507231637 55 172 2.0 3.0 0.00 0.02 0.02 71 1009.3
20260507231137 54 200 2.0 3.0 0.00 0.02 0.02 72 1009.3
20260507230637 54 212 2.0 3.0 0.00 0.02 0.02 72 1009.2
20260507230137 54 214 1.0 2.0 0.00 0.02 0.02 72 1009.4
20260507225637 53 215 3.0 2.0 0.00 0.02 0.02 72 1009.7
20260507225137 53 198 4.0 3.0 0.00 0.02 0.02 73 1009.7
20260507224636 53 195 3.0 3.0 0.00 0.02 0.02 74 1009.8
20260507224138 53 214 3.0 3.0 0.00 0.02 0.02 76 1009.9
20260507223636 52 194 2.0 2.0 0.00 0.02 0.02 78 1009.9
20260507223138 52 217 5.0 2.0 0.00 0.02 0.02 79 1010.0
20260507222637 51 112 2.0 1.0 0.01 0.02 0.02 80 1009.8
20260507222138 50 0 0.0 1.0 0.02 0.02 0.02 79 1010.4
20260507221637 50 172 2.0 0.0 0.02 0.02 0.02 78 1010.8
20260507221137 49 0 0.0 0.0 0.02 0.02 0.02 78 1010.8
20260507220637 49 0 0.0 1.0 0.02 0.02 0.02 77 1010.7
20260507220137 49 0 0.0 1.0 0.02 0.02 0.02 76 1010.8
20260507215637 49 2 2.0 2.0 0.02 0.02 0.02 75 1010.7
20260507215137 49 0 0.0 3.0 0.02 0.02 0.02 74 1010.7
20260507214636 49 27 2.0 4.0 0.02 0.02 0.02 72 1010.6
20260507214138 49 359 5.0 4.0 0.02 0.02 0.02 71 1010.7
20260507213637 50 26 6.0 5.0 0.02 0.02 0.02 69 1010.7
20260507213137 50 111 5.0 5.0 0.01 0.01 0.01 68 1010.9
20260507212636 50 342 3.0 5.0 0.01 0.01 0.01 65 1010.8
20260507212137 51 85 5.0 5.0 0.00 0.00 0.00 61 1010.5
20260507211636 53 35 6.0 5.0 0.00 0.00 0.00 56 1010.7
20260507211137 54 78 3.0 4.0 0.00 0.00 0.00 52 1010.5
20260507210637 56 52 8.0 5.0 0.00 0.00 0.00 48 1010.5
20260507210137 59 349 4.0 6.0 0.00 0.00 0.00 45 1010.1
20260507205637 61 232 7.0 5.0 0.00 0.00 0.00 45 1009.7
20260507205137 62 295 2.0 4.0 0.00 0.00 0.00 48 1009.5
20260507204636 61 271 2.0 4.0 0.00 0.00 0.00 49 1009.6
20260507204137 61 236 1.0 5.0 0.00 0.00 0.00 49 1009.8
20260507203636 61 229 3.0 6.0 0.00 0.00 0.00 49 1009.8
20260507203137 61 231 3.0 6.0 0.00 0.00 0.00 49 1009.8
20260507202637 61 230 7.0 6.0 0.00 0.00 0.00 48 1009.9
20260507202137 61 188 2.0 7.0 0.00 0.00 0.00 48 1010.0
20260507201637 62 220 5.0 7.0 0.00 0.00 0.00 47 1010.1
20260507201137 62 202 5.0 7.0 0.00 0.00 0.00 47 1010.2
20260507200637 62 228 10.0 6.0 0.00 0.00 0.00 46 1010.3
20260507200137 62 248 2.0 6.0 0.00 0.00 0.00 46 1010.3
20260507195636 62 233 5.0 7.0 0.00 0.00 0.00 45 1010.3
20260507195137 62 179 4.0 8.0 0.00 0.00 0.00 48 1010.6
20260507194636 60 228 8.0 8.0 0.00 0.00 0.00 48 1010.6
20260507194137 60 241 7.0 8.0 0.00 0.00 0.00 46 1010.6
20260507193636 61 219 11.0 8.0 0.00 0.00 0.00 45 1010.7
20260507193137 62 234 11.0 8.0 0.00 0.00 0.00 43 1010.8
20260507192637 62 216 10.0 9.0 0.00 0.00 0.00 43 1010.8
20260507192137 61 216 8.0 9.0 0.00 0.00 0.00 42 1010.9
20260507191636 62 177 7.0 9.0 0.00 0.00 0.00 41 1010.9
20260507191138 62 211 3.0 8.0 0.00 0.00 0.00 38 1010.8
20260507190637 64 193 6.0 8.0 0.00 0.00 0.00 38 1010.8
20260507190138 64 211 7.0 8.0 0.00 0.00 0.00 37 1010.8
20260507185636 63 251 7.0 7.0 0.00 0.00 0.00 38 1010.9
20260507185137 62 221 14.0 7.0 0.00 0.00 0.00 38 1011.0
20260507184636 61 253 6.0 6.0 0.00 0.00 0.00 38 1011.0
20260507184137 62 259 4.0 7.0 0.00 0.00 0.00 36 1011.2
20260507183636 62 218 9.0 5.0 0.00 0.00 0.00 36 1011.1
20260507183137 63 200 4.0 5.0 0.00 0.00 0.00 35 1011.2
20260507182636 63 205 5.0 5.0 0.00 0.00 0.00 35 1011.3
20260507182137 64 262 2.0 5.0 0.00 0.00 0.00 35 1011.5
20260507181636 64 234 6.0 4.0 0.00 0.00 0.00 34 1011.5
20260507181137 65 234 7.0 4.0 0.00 0.00 0.00 34 1011.7
20260507180636 64 220 2.0 6.0 0.00 0.00 0.00 35 1011.9
20260507180137 63 202 7.0 7.0 0.00 0.00 0.00 36 1011.9
20260507175637 62 200 7.0 7.0 0.00 0.00 0.00 35 1012.0
20260507175137 63 224 7.0 7.0 0.00 0.00 0.00 34 1012.0
20260507174636 63 199 9.0 6.0 0.00 0.00 0.00 34 1012.1
20260507174137 64 199 4.0 6.0 0.00 0.00 0.00 33 1012.2
20260507173636 63 195 4.0 5.0 0.00 0.00 0.00 33 1012.3
20260507173138 62 255 2.0 5.0 0.00 0.00 0.00 34 1012.5
20260507172636 62 192 7.0 5.0 0.00 0.00 0.00 34 1012.5
20260507172138 61 188 7.0 4.0 0.00 0.00 0.00 36 1012.6
20260507171636 60 238 4.0 5.0 0.00 0.00 0.00 35 1012.8
20260507171136 61 195 7.0 5.0 0.00 0.00 0.00 34 1012.8
20260507170636 62 200 4.0 4.0 0.00 0.00 0.00 33 1012.9
20260507170137 62 161 4.0 4.0 0.00 0.00 0.00 35 1013.0
20260507165638 61 179 2.0 4.0 0.00 0.00 0.00 35 1013.1
20260507165136 60 277 5.0 4.0 0.00 0.00 0.00 35 1013.2
20260507164636 60 236 4.0 5.0 0.00 0.00 0.00 35 1013.2
20260507164137 60 210 8.0 5.0 0.00 0.00 0.00 35 1013.3
20260507163636 60 207 6.0 4.0 0.00 0.00 0.00 35 1013.4
20260507163137 60 224 1.0 3.0 0.00 0.00 0.00 35 1013.5
20260507162636 60 214 7.0 4.0 0.00 0.00 0.00 36 1013.6
20260507162136 59 193 2.0 4.0 0.00 0.00 0.00 35 1013.6
20260507161636 60 230 3.0 3.0 0.00 0.00 0.00 35 1013.8
20260507161137 60 195 6.0 3.0 0.00 0.00 0.00 35 1014.0
20260507160637 60 0 0.0 4.0 0.00 0.00 0.00 35 1013.9
20260507160137 60 0 0.0 4.0 0.00 0.00 0.00 35 1014.1
20260507155636 60 199 8.0 4.0 0.00 0.00 0.00 35 1014.2
20260507155136 60 221 3.0 2.0 0.00 0.00 0.00 37 1014.2
20260507154636 59 330 1.0 2.0 0.00 0.00 0.00 38 1014.3
20260507154137 58 257 2.0 3.0 0.00 0.00 0.00 37 1014.5
20260507153636 58 0 0.0 3.0 0.00 0.00 0.00 37 1014.5
20260507153137 58 231 1.0 3.0 0.00 0.00 0.00 38 1014.7
20260507152636 57 204 3.0 3.0 0.00 0.00 0.00 39 1014.8
20260507152137 56 217 6.0 3.0 0.00 0.00 0.00 39 1014.8
20260507151636 56 231 1.0 3.0 0.00 0.00 0.00 39 1014.9
20260507151136 55 304 4.0 4.0 0.00 0.00 0.00 39 1014.9
20260507150636 55 261 3.0 4.0 0.00 0.00 0.00 39 1014.9
20260507150137 55 220 4.0 4.0 0.00 0.00 0.00 39 1014.9
20260507145636 55 255 2.0 3.0 0.00 0.00 0.00 40 1014.9
20260507145137 55 233 5.0 2.0 0.00 0.00 0.00 41 1014.9
20260507144636 54 207 6.0 2.0 0.00 0.00 0.00 42 1015.0
20260507144136 53 240 2.0 3.0 0.00 0.00 0.00 43 1015.1
20260507143636 53 268 1.0 3.0 0.00 0.00 0.00 44 1015.2
20260507143137 53 248 1.0 3.0 0.00 0.00 0.00 44 1015.2
20260507142636 52 211 3.0 2.0 0.00 0.00 0.00 44 1015.1
20260507142136 51 256 1.0 2.0 0.00 0.00 0.00 46 1015.2
20260507141636 51 239 2.0 2.0 0.00 0.00 0.00 47 1015.2
20260507141136 50 240 2.0 2.0 0.00 0.00 0.00 47 1015.3
20260507140637 50 252 2.0 2.0 0.00 0.00 0.00 47 1015.4
20260507140137 50 287 2.0 2.0 0.00 0.00 0.00 47 1015.5
20260507135636 49 245 1.0 3.0 0.00 0.00 0.00 47 1015.6
20260507135137 49 311 5.0 2.0 0.00 0.00 0.00 48 1015.6
20260507134636 49 0 0.0 2.0 0.00 0.00 0.00 49 1015.7
20260507134137 49 263 4.0 2.0 0.00 0.00 0.00 49 1015.6
20260507133636 48 271 2.0 2.0 0.00 0.00 0.00 50 1015.6
20260507133136 48 268 1.0 2.0 0.00 0.00 0.00 50 1015.6
20260507132636 48 241 1.0 2.0 0.00 0.00 0.00 50 1015.6
20260507132136 47 153 1.0 2.0 0.00 0.00 0.00 51 1015.4
20260507131636 47 273 2.0 2.0 0.00 0.00 0.00 51 1015.4
20260507131137 47 230 2.0 2.0 0.00 0.00 0.00 52 1015.5
20260507130636 46 243 4.0 2.0 0.00 0.00 0.00 53 1015.5
20260507130137 46 264 1.0 2.0 0.00 0.00 0.00 53 1015.4
20260507125636 46 248 2.0 2.0 0.00 0.00 0.00 55 1015.5
20260507125137 45 302 4.0 2.0 0.00 0.00 0.00 57 1015.5
20260507124636 45 265 2.0 2.0 0.00 0.00 0.00 58 1015.5
20260507124136 44 237 1.0 2.0 0.00 0.00 0.00 60 1015.5
20260507123636 43 212 3.0 2.0 0.00 0.00 0.00 61 1015.5
20260507123137 43 0 0.0 2.0 0.00 0.00 0.00 62 1015.5
20260507122636 43 267 1.0 2.0 0.00 0.00 0.00 63 1015.4
20260507122136 42 245 2.0 1.0 0.00 0.00 0.00 64 1015.2
20260507121636 42 0 0.0 1.0 0.00 0.00 0.00 66 1015.3
20260507121136 41 0 0.0 1.0 0.00 0.00 0.00 66 1015.3
20260507120636 41 262 2.0 1.0 0.00 0.00 0.00 67 1015.3
20260507120136 41 234 2.0 1.0 0.00 0.00 0.00 68 1015.4
20260507115636 40 0 0.0 1.0 0.00 0.00 0.00 68 1015.2
20260507115136 40 0 0.0 1.0 0.00 0.00 0.00 69 1015.2
20260507114636 40 234 2.0 0.0 0.00 0.00 0.00 69 1015.2
20260507114136 39 0 0.0 0.0 0.00 0.00 0.00 69 1015.2
20260507113636 39 0 0.0 0.0 0.00 0.00 0.00 69 1015.3
20260507113136 39 0 0.0 0.0 0.00 0.00 0.00 69 1015.2
20260507112637 38 0 0.0 0.0 0.00 0.00 0.00 69 1015.2
20260507112136 38 0 0.0 1.0 0.00 0.00 0.00 69 1015.1
20260507111636 38 0 0.0 1.0 0.00 0.00 0.00 69 1015.0
20260507111137 38 234 2.0 1.0 0.00 0.00 0.00 68 1015.1
20260507110636 38 0 0.0 1.0 0.00 0.00 0.00 68 1015.0
20260507110137 38 226 1.0 0.0 0.00 0.00 0.00 68 1015.0
20260507105636 38 0 0.0 1.0 0.00 0.00 0.00 68 1015.0
20260507105136 38 246 1.0 1.0 0.00 0.00 0.00 68 1015.0
20260507104637 38 246 1.0 1.0 0.00 0.00 0.00 67 1014.9
20260507104137 38 261 2.0 0.0 0.00 0.00 0.00 67 1015.0
20260507103637 38 0 0.0 0.0 0.00 0.00 0.00 67 1014.9
20260507103137 38 0 0.0 0.0 0.00 0.00 0.00 66 1014.9
20260507102637 38 0 0.0 0.0 0.00 0.00 0.00 66 1014.9
20260507102137 38 0 0.0 0.0 0.00 0.00 0.00 66 1014.9
20260507101637 38 0 0.0 0.0 0.00 0.00 0.00 66 1014.9
20260507101137 38 261 1.0 0.0 0.00 0.00 0.00 66 1015.0
20260507100637 38 261 1.0 0.0 0.00 0.00 0.00 65 1014.9
20260507100137 38 0 0.0 0.0 0.00 0.00 0.00 65 1015.0
20260507095637 38 261 1.0 0.0 0.00 0.00 0.00 65 1015.1
20260507095137 38 0 0.0 0.0 0.00 0.00 0.00 65 1015.1
20260507094638 38 0 0.0 0.0 0.00 0.00 0.00 64 1015.1
20260507094138 38 261 1.0 0.0 0.00 0.00 0.00 64 1015.0
20260507093637 39 0 0.0 1.0 0.00 0.00 0.00 64 1015.0
20260507093137 39 0 0.0 1.0 0.00 0.00 0.00 64 1015.0
20260507092637 39 261 1.0 0.0 0.00 0.00 0.00 63 1015.0
20260507092137 39 0 0.0 0.0 0.00 0.00 0.00 63 1015.0
20260507091637 39 0 0.0 0.0 0.00 0.00 0.00 62 1014.9
20260507091137 39 261 1.0 0.0 0.00 0.00 0.00 62 1015.0
20260507090636 40 0 0.0 0.0 0.00 0.00 0.00 62 1015.1
20260507090137 40 0 0.0 1.0 0.00 0.00 0.00 62 1015.1
20260507085637 40 0 0.0 1.0 0.00 0.00 0.00 61 1015.1
20260507085137 40 264 1.0 1.0 0.00 0.00 0.00 61 1015.1
20260507084636 40 0 0.0 0.0 0.00 0.00 0.00 60 1015.1
20260507084137 41 288 1.0 0.0 0.00 0.00 0.00 60 1015.1
20260507083636 41 0 0.0 0.0 0.00 0.00 0.00 59 1015.0
20260507083137 41 0 0.0 0.0 0.00 0.00 0.00 59 1014.9
20260507082637 41 0 0.0 0.0 0.00 0.00 0.00 59 1015.0
20260507082137 41 290 2.0 0.0 0.00 0.00 0.00 59 1015.0
20260507081637 41 0 0.0 1.0 0.00 0.00 0.00 59 1015.1
20260507081137 41 298 1.0 1.0 0.00 0.00 0.00 59 1014.9
20260507080637 41 0 0.0 1.0 0.00 0.00 0.00 59 1015.0
20260507080137 42 296 2.0 1.0 0.00 0.00 0.00 59 1014.9
20260507075637 42 298 1.0 1.0 0.00 0.00 0.00 58 1015.0
20260507075137 42 312 1.0 0.0 0.00 0.00 0.00 58 1015.0
20260507074638 42 0 0.0 0.0 0.00 0.00 0.00 58 1015.1
20260507074137 42 0 0.0 0.0 0.00 0.00 0.00 57 1015.1
20260507073637 42 0 0.0 1.0 0.00 0.00 0.00 57 1015.1
20260507073137 42 0 0.0 1.0 0.00 0.00 0.00 57 1015.0
20260507072636 42 0 0.0 1.0 0.00 0.00 0.00 57 1015.0
20260507072138 42 278 1.0 1.0 0.00 0.00 0.00 57 1015.1
20260507071636 42 0 0.0 1.0 0.00 0.00 0.00 57 1015.1
20260507071137 42 298 1.0 1.0 0.00 0.00 0.00 57 1015.2
20260507070637 42 0 0.0 1.0 0.00 0.00 0.00 57 1015.3
20260507070137 42 318 1.0 0.0 0.00 0.00 0.00 57 1015.2
20260507065637 42 280 1.0 0.0 0.00 0.00 0.00 56 1015.3
20260507065137 43 0 0.0 1.0 0.00 0.00 0.00 57 1015.2
20260507064637 43 0 0.0 1.0 0.00 0.00 0.00 56 1015.2
20260507064137 43 281 1.0 0.0 0.00 0.00 0.00 56 1015.3
20260507063636 43 0 0.0 1.0 0.00 0.00 0.00 56 1015.3
20260507063137 43 276 1.0 1.0 0.00 0.00 0.00 55 1015.3
20260507062637 43 276 1.0 0.0 0.00 0.00 0.00 55 1015.3
20260507062137 43 0 0.0 0.0 0.00 0.00 0.00 55 1015.4
20260507061637 43 0 0.0 0.0 0.00 0.00 0.00 54 1015.4
20260507061137 44 0 0.0 1.0 0.00 0.00 0.00 54 1015.5
20260507060636 44 0 0.0 1.0 0.00 0.00 0.00 54 1015.5
20260507060137 44 289 2.0 1.0 0.00 0.00 0.00 54 1015.4
20260507055636 44 0 0.0 0.0 0.00 0.00 0.00 54 1015.4
20260507055137 44 0 0.0 1.0 0.00 0.00 0.00 53 1015.4
20260507054636 44 289 1.0 1.0 0.00 0.00 0.00 53 1015.3
20260507054137 44 289 3.0 1.0 0.00 0.00 0.00 53 1015.4
20260507053637 44 289 2.0 1.0 0.00 0.00 0.00 52 1015.4
20260507053137 44 280 1.0 1.0 0.00 0.00 0.00 52 1015.5
20260507052636 45 276 2.0 1.0 0.00 0.00 0.00 52 1015.5
20260507052138 45 295 1.0 1.0 0.00 0.00 0.00 52 1015.4
20260507051637 45 295 1.0 1.0 0.00 0.00 0.00 52 1015.5
20260507051137 45 311 2.0 2.0 0.00 0.00 0.00 52 1015.5
20260507050637 45 316 3.0 2.0 0.00 0.00 0.00 51 1015.5
20260507050137 45 268 3.0 2.0 0.00 0.00 0.00 51 1015.5
20260507045636 45 304 1.0 2.0 0.00 0.00 0.00 51 1015.4
20260507045137 45 279 1.0 2.0 0.00 0.00 0.00 50 1015.5
20260507044636 45 273 2.0 2.0 0.00 0.00 0.00 50 1015.5
20260507044137 46 0 0.0 2.0 0.00 0.00 0.00 50 1015.5
20260507043636 46 292 2.0 2.0 0.00 0.00 0.00 50 1015.4
20260507043137 46 274 2.0 2.0 0.00 0.00 0.00 49 1015.5
20260507042636 46 270 2.0 2.0 0.00 0.00 0.00 50 1015.3
20260507042138 46 273 3.0 3.0 0.00 0.00 0.00 49 1015.4
20260507041636 46 281 3.0 3.0 0.00 0.00 0.00 49 1015.3
20260507041137 46 273 2.0 2.0 0.00 0.00 0.00 49 1015.4
20260507040636 46 292 2.0 3.0 0.00 0.00 0.00 48 1015.3
20260507040137 47 278 4.0 3.0 0.00 0.00 0.00 48 1015.3
20260507035637 47 330 2.0 3.0 0.00 0.00 0.00 48 1015.3
20260507035137 47 301 4.0 3.0 0.00 0.00 0.00 48 1015.4
20260507034636 47 283 5.0 3.0 0.00 0.00 0.00 48 1015.4
20260507034137 47 347 2.0 4.0 0.00 0.00 0.00 47 1015.4
20260507033636 47 281 1.0 4.0 0.00 0.00 0.00 47 1015.4
20260507033137 47 276 4.0 3.0 0.00 0.00 0.00 47 1015.4
20260507032636 47 318 2.0 3.0 0.00 0.00 0.00 47 1015.4
20260507032137 48 276 4.0 3.0 0.00 0.00 0.00 47 1015.4
20260507031638 48 283 2.0 3.0 0.00 0.00 0.00 46 1015.4
20260507031137 48 307 7.0 3.0 0.00 0.00 0.00 46 1015.4
20260507030638 48 310 2.0 4.0 0.00 0.00 0.00 46 1015.3
20260507030137 48 274 3.0 4.0 0.00 0.00 0.00 46 1015.3
20260507025636 48 268 3.0 4.0 0.00 0.00 0.00 46 1015.3
20260507025137 48 282 4.0 4.0 0.00 0.00 0.00 46 1015.3
20260507024636 48 259 2.0 4.0 0.00 0.00 0.00 45 1015.3
20260507024137 49 295 3.0 3.0 0.00 0.00 0.00 45 1015.2
20260507023636 49 274 3.0 3.0 0.00 0.00 0.00 45 1015.1
20260507023137 49 274 1.0 3.0 0.00 0.00 0.00 45 1015.0
20260507022636 49 321 2.0 4.0 0.00 0.00 0.00 44 1015.0
20260507022137 49 258 4.0 4.0 0.00 0.00 0.00 44 1014.9
20260507021636 49 262 3.0 5.0 0.00 0.00 0.00 44 1014.9
20260507021137 49 257 7.0 5.0 0.00 0.00 0.00 44 1014.8
20260507020636 49 324 3.0 4.0 0.00 0.00 0.00 43 1014.7
20260507020137 49 299 3.0 5.0 0.00 0.00 0.00 43 1014.6
20260507015636 50 302 4.0 4.0 0.00 0.00 0.00 43 1014.7
20260507015137 50 304 2.0 5.0 0.00 0.00 0.00 43 1014.7
20260507014636 50 271 4.0 4.0 0.00 0.00 0.00 43 1014.6
20260507014137 50 269 2.0 3.0 0.00 0.00 0.00 44 1014.6
20260507013636 50 292 1.0 4.0 0.00 0.00 0.00 43 1014.5
20260507013138 50 297 3.0 5.0 0.00 0.00 0.00 43 1014.5
20260507012636 51 274 6.0 5.0 0.00 0.00 0.00 43 1014.5
20260507012137 51 278 8.0 5.0 0.00 0.00 0.00 43 1014.4
20260507011636 51 289 4.0 4.0 0.00 0.00 0.00 43 1014.4
20260507011137 51 270 4.0 5.0 0.00 0.00 0.00 43 1014.3
20260507010636 51 269 3.0 5.0 0.00 0.00 0.00 43 1014.3
20260507010137 52 306 8.0 6.0 0.00 0.00 0.00 42 1014.2
20260507005636 52 286 4.0 5.0 0.00 0.00 0.00 42 1014.3
20260507005137 52 279 9.0 5.0 0.00 0.00 0.00 42 1014.2
20260507004636 53 335 4.0 5.0 0.00 0.00 0.00 42 1014.2